Regional Weather Roundup
Issued by NWS

Home | Current Version | Previous Version | Graphics & Text | Print | Product List | Glossary On
Versions: 1 2 3 4 5 6 7 8 9 10 11 12 13 14 15 16 17 18 19 20 21 22 23 24 25 26 27 28
000
ASUS45 KPSR 230710
RWRAZ

ARIZONA HOURLY REGIONAL WEATHER ROUNDUP
NATIONAL WEATHER SERVICE PHOENIX AZ
1200 AM MST SAT JUL 23 2016

NOTE: FAIR INDICATES FEW OR NO CLOUDS BELOW 12,000 FEET WITH NO
SIGNIFICANT WEATHER AND/OR OBSTRUCTIONS TO VISIBILITY.

AZZ001>003-036-230800-
NORTHWEST ARIZONA

CITY           SKY/WX    TMP DP  RH WIND       PRES   REMARKS
BULLHEAD CITY  PTCLDY    99  43  14 CALM      29.77R
KINGMAN        MOCLDY    87  45  23 E10       30.03F
$$

AZZ004>008-015-016-018-230800-
NORTH CENTRAL ARIZONA

CITY           SKY/WX    TMP DP  RH WIND       PRES   REMARKS
GRAND CANYON   CLOUDY    62  55  77 NE5       30.34F
WILLIAMS       CLOUDY    68  50  52 SE5       30.40F
PRESCOTT       CLOUDY    70  59  68 SW8       30.21F
FLAGSTAFF      CLOUDY    63  50  62 E5        30.36F
PAYSON         MOCLDY    75  48  38 N12       30.23R
PAGE           MOCLDY    84  46  26 SE6       30.12R
$$

AZZ009>014-017-230800-
NORTHEAST ARIZONA

CITY           SKY/WX    TMP DP  RH WIND       PRES   REMARKS
WINSLOW        MOCLDY    69  55  60 SW10      30.21F
SAINT JOHNS    PTCLDY    67  48  50 NE5       30.28R
WINDOW ROCK    MOCLDY    65  55  70 CALM      30.35S
SHOW LOW       PTCLDY    61  50  67 NW10      30.35R
$$

AZZ023-230800-
GREATER PHOENIX AREA

CITY           SKY/WX    TMP DP  RH WIND       PRES   REMARKS
PHOENIX        PTCLDY    97  53  22 CALM      29.81R
BUCKEYE        PTCLDY    91  55  29 S6        29.84S
LUKE AFB       PTCLDY    94  56  28 NW2       29.82S
DEER VALLEY    PTCLDY    93  50  23 SE3       29.85R
SCOTTSDALE     PTCLDY    97  50  20 SW6       29.86R
MESA-GATEWAY   CLEAR     97  52  21 CALM      29.85
$$

AZZ027-028-230800-
SOUTHWEST MARICOPA COUNTY AND PINAL COUNTY

CITY           SKY/WX    TMP DP  RH WIND       PRES   REMARKS
CASA GRANDE    MOCLDY    97  52  21 SW7       29.87S
GILA BEND      FAIR      98  51  20 SW5       29.80S
$$

AZZ503-504-507>509-230800-
SOUTHEAST ARIZONA

CITY           SKY/WX    TMP DP  RH WIND       PRES   REMARKS
TUCSON         PTCLDY    89  56  32 SW6       29.98R
DAVIS-MONTHAN  MOCLDY    89  53  29 SW7       29.97R
NOGALES        PTCLDY    79  57  46 E6        30.10R
SIERRA VISTA   MOCLDY    84  52  32 S17       30.17S
DOUGLAS        MOCLDY    76  64  66 SW5       30.11R
SAFFORD        CLEAR     84  54  35 N6        30.00R
$$

AZZ020-021-025-026-031-230800-
SOUTHWEST ARIZONA

CITY           SKY/WX    TMP DP  RH WIND       PRES   REMARKS
YUMA           PTCLDY    93  60  33 SE6       29.76R
$$

CAZ031-033-041-043-047-048-061-230800-
SOUTHERN CALIFORNIA

CITY           SKY/WX    TMP DP  RH WIND       PRES   REMARKS
DOWNTOWN L.A.  CLEAR     75  60  59 CALM      29.82S
L.A. AIRPORT   PTCLDY    75  58  55 S3        29.82F
SAN DIEGO      PTCLDY    72  68  87 NW3       29.86S
BURBANK        PTCLDY    82  57  42 E6        29.85S
ONTARIO        PTCLDY    84  49  29 CALM      29.86S
RIVERSIDE      CLEAR     83  54  36 CALM      29.86S
PALM SPRINGS   CLEAR    100  46  16 NW8       29.79R
EL CENTRO NAS  CLEAR     91  59  33 SW5       29.73S
IMPERIAL       CLEAR     95  63  34 SE6       29.71S
BLYTHE         PTCLDY   100  55  22 S10       29.76S
NEEDLES        PTCLDY   104  46  14 E7        29.78R HX 100
$$

NVZ020-UTZ003-230800-
SOUTHERN NEVADA-UTAH

CITY           SKY/WX    TMP DP  RH WIND       PRES   REMARKS
LAS VEGAS      PTCLDY    96  25   8 SW7       29.83S
SALT LAKE CITY PTCLDY    77  43  29 SE3       30.06S
$$

NMZ009-TXZ055-230800-
NEW MEXICO-WEST TEXAS

CITY           SKY/WX    TMP DP  RH WIND       PRES   REMARKS
ALBUQUERQUE    CLOUDY    82  50  32 NW14      30.21R
EL PASO        CLEAR     87  44  22 SE9       30.06R
$$


........................KEY........................
SKY/WX - SKY CONDITION/WEATHER
TMP    - TEMPERATURE IN FAHRENHEIT
DP     - DEW POINT IN FAHRENHEIT
RH     - RELATIVE HUMIDITY IN PERCENT
WIND   - DIRECTION AND SPEED IN MILES PER HOUR (MPH)
VRB    - VARIABLE WIND DIRECTION
PRES   - MEAN SEA LEVEL PRESSURE IN INCHES OF MERCURY
         F - FALLING PRESSURE   R - RISING PRESSURE
         S - STEADY PRESSURE
VSB    - VISIBILITY IN MILES
HX     - HEAT INDEX IN FAHRENHEIT
WCI    - WIND CHILL INDEX IN FAHRENHEIT
TC     - TEMPERATURE IN CELSIUS WHICH IS ALSO KNOWN AS
         TEMPERATURE IN CENTIGRADE
AFB    - AIR FORCE BASE
         LUKE AFB IS LUKE AIR FORCE BASE
         DAVIS-MONTHAN IS DAVIS-MONTHAN AIR FORCE BASE
NAS    - NAVAL AIR STATION
         EL CENTRO NAS IS EL CENTRO NAVAL AIR STATION
N/A    - NOT AVAILABLE





USA.gov is the U.S. government's official web portal to all federal, state and local government web resources and services.